Weather reports worldwide

Advertisment
Caceres, Spain (8261): temperature & dewpoint: 04.04.2020 20:00:00 - 10.04.2020 20:00:00 (CEST)Caceres, Spain (8261): wind speed: 04.04.2020 20:00:00 - 10.04.2020 20:00:00 (CEST)Caceres, Spain (8261): wind direction: 04.04.2020 20:00:00 - 10.04.2020 20:00:00 (CEST)Caceres, Spain (8261): reduced air pressure: 04.04.2020 20:00:00 - 10.04.2020 20:00:00 (CEST)Caceres, Spain (8261): visibility: 04.04.2020 20:00:00 - 10.04.2020 20:00:00 (CEST)Caceres, Spain (8261): precipitation: 04.04.2020 20:00:00 - 10.04.2020 20:00:00 (CEST)
Date & Time tt [°C] td [°C] ff [km/h] ff [kn] dd ppp [hPa] vv [km] rr [mm]
10.04.2020 20:00:00 18,1 12,5 8 4 W 1018,8 19 -
10.04.2020 19:00:00 19,3 11,6 9 5 W 1018,6 20 0,0
10.04.2020 18:00:00 19,2 12,2 15 8 W 1018,7 20 0,0
10.04.2020 17:00:00 20,8 10,9 9 5 W 1018,3 20 -
10.04.2020 16:00:00 19,9 12,2 5 3 WNW 1018,9 20 0,0
10.04.2020 15:00:00 18,8 13,6 4 2 NNW 1019,5 20 0,0
10.04.2020 14:00:00 17,2 13,7 5 3 N 1020,4 20 -
10.04.2020 13:00:00 16,8 14,3 2 1 NNW 1021,0 20 0,0
10.04.2020 12:00:00 15,0 13,9 2 1 NNE 1021,3 20 0,0
10.04.2020 11:00:00 13,7 13,7 4 2 N 1021,1 0,5 -
10.04.2020 10:00:00 13,2 13,2 0 0 N 1021,1 1,6 0,0
10.04.2020 09:00:00 12,8 12,8 4 2 ESE 1020,6 0,4 0,0
10.04.2020 08:00:00 12,4 12,4 4 2 S 1020,4 2,0 -
10.04.2020 07:00:00 13,1 13,1 4 2 WNW 1020,0 2,8 0,0
10.04.2020 06:00:00 13,2 13,2 4 2 S 1019,9 3,6 0,0
10.04.2020 05:00:00 13,3 13,3 5 3 N 1020,0 2,5 -
10.04.2020 04:00:00 13,4 13,4 5 3 N 1020,0 2,1 2,0
10.04.2020 03:00:00 13,6 13,6 0 0 N 1020,1 4,7 0,6
10.04.2020 02:00:00 13,7 13,7 0 0 N 1020,4 11 -
10.04.2020 01:00:00 13,8 13,8 0 0 N 1020,4 15 0,0
10.04.2020 00:00:00 13,7 13,7 0 0 N 1020,7 8 0,0
09.04.2020 23:00:00 13,7 13,7 0 0 N 1020,7 18 -
09.04.2020 22:00:00 13,7 13,7 0 0 N 1019,9 16 0,0
09.04.2020 21:00:00 13,8 13,6 0 0 N 1019,3 19 0,0
09.04.2020 20:00:00 13,8 13,5 2 1 N 1019,2 20 -
09.04.2020 19:00:00 13,7 13,4 0 0 N 1019,1 12 2,0
09.04.2020 18:00:00 13,7 13,4 0 0 N 1018,8 - 3,0
09.04.2020 17:00:00 13,1 13,1 0 0 N 1019,0 4,6 -
09.04.2020 16:00:00 13,1 13,1 9 5 NNW 1019,1 4,8 2,0
09.04.2020 15:00:00 13,9 13,9 13 7 NW 1019,0 3,1 4,0
09.04.2020 14:00:00 15,0 14,7 2 1 NNW 1018,7 2,0 -
09.04.2020 13:00:00 15,4 14,9 8 4 NNE 1018,9 7 0,0
09.04.2020 12:00:00 15,9 15,3 5 3 N 1018,9 11 0,0
09.04.2020 11:00:00 15,6 15,0 5 3 ENE 1018,7 4,0 -
09.04.2020 10:00:00 15,5 15,0 2 1 W 1018,5 10 0,6
09.04.2020 09:00:00 15,1 14,5 4 2 W 1018,2 10 0,4
09.04.2020 08:00:00 14,6 14,0 4 2 WSW 1017,7 10 -
09.04.2020 07:00:00 14,6 14,0 4 2 SSW 1017,5 20 0,0
09.04.2020 06:00:00 15,0 14,2 4 2 SW 1017,5 20 0,2
09.04.2020 05:00:00 15,1 14,3 0 0 N 1017,6 19 -
09.04.2020 04:00:00 15,7 14,2 2 1 W 1018,0 20 0,2
09.04.2020 03:00:00 15,9 14,6 5 3 WSW 1018,3 14 0,6
09.04.2020 02:00:00 16,2 14,2 4 2 WSW 1018,6 13 -
09.04.2020 01:00:00 16,3 14,1 5 3 WSW 1019,2 6 0,0
09.04.2020 00:00:00 16,3 14,0 4 2 SW 1019,4 4,8 0,0
08.04.2020 23:00:00 16,7 13,8 5 3 SW 1019,3 2,2 -
08.04.2020 22:00:00 17,3 13,8 4 2 SW 1018,8 4,2 0,0
08.04.2020 21:00:00 18,3 14,2 4 2 W 1018,5 2,1 0,0
08.04.2020 20:00:00 20,2 14,1 5 3 W 1018,3 2,7 -
08.04.2020 19:00:00 21,3 13,5 8 4 SW 1018,0 4,0 0,0
08.04.2020 18:00:00 21,3 13,5 11 6 SSW 1018,0 9 0,0
08.04.2020 17:00:00 21,5 14,4 4 2 N 1018,4 20 -
08.04.2020 16:00:00 21,7 13,1 8 4 ENE 1018,9 20 0,0
08.04.2020 15:00:00 20,8 13,7 8 4 E 1019,6 20 0,0
08.04.2020 14:00:00 19,4 13,8 5 3 ENE 1020,5 30 -
08.04.2020 13:00:00 18,0 15,8 8 4 ENE 1021,4 20 0,0
08.04.2020 12:00:00 15,9 14,8 5 3 N 1022,1 20 0,0
08.04.2020 11:00:00 14,1 13,8 4 2 N 1022,6 19 -
08.04.2020 10:00:00 13,3 13,3 0 0 N 1022,5 19 0,0
08.04.2020 09:00:00 11,0 11,0 2 1 NNE 1022,8 14 0,0
08.04.2020 08:00:00 11,0 11,0 0 0 N 1022,4 10 -
08.04.2020 07:00:00 11,1 11,1 4 2 SE 1022,3 15 0,0
08.04.2020 06:00:00 11,6 11,6 5 3 SW 1022,3 20 0,0
08.04.2020 05:00:00 11,2 11,0 2 1 E 1022,9 18 -
08.04.2020 04:00:00 11,6 11,6 0 0 N 1023,1 20 0,0
08.04.2020 03:00:00 11,6 11,4 2 1 SSE 1023,5 17 0,0
08.04.2020 02:00:00 12,0 11,8 4 2 SW 1023,5 20 -
08.04.2020 01:00:00 12,2 11,9 4 2 SW 1023,7 20 0,0
08.04.2020 00:00:00 13,1 12,3 2 1 WSW 1023,3 20 0,0
07.04.2020 23:00:00 14,2 13,6 11 6 S 1023,0 20 -
07.04.2020 22:00:00 14,2 12,9 4 2 SSW 1022,6 20 0,0
07.04.2020 21:00:00 16,0 13,8 9 5 S 1021,7 20 0,0
07.04.2020 20:00:00 19,1 13,7 5 3 SSW 1021,3 20 -
07.04.2020 19:00:00 19,1 14,1 8 4 SSW 1021,1 20 0,0
07.04.2020 18:00:00 19,0 15,1 5 3 SW 1021,3 20 0,0
07.04.2020 17:00:00 17,9 15,5 11 6 S 1021,5 20 -
07.04.2020 16:00:00 16,3 14,8 15 8 S 1022,3 8 0,2
07.04.2020 15:00:00 15,9 14,8 15 8 S 1022,7 2,2 0,8
07.04.2020 14:00:00 17,1 14,4 8 4 SW 1022,4 7 -
07.04.2020 13:00:00 17,6 14,1 16 9 S 1022,3 20 0,0
07.04.2020 12:00:00 16,2 14,2 22 12 S 1022,6 20 0,0
07.04.2020 11:00:00 15,0 14,0 16 9 S 1022,2 20 -
07.04.2020 10:00:00 13,8 13,5 15 8 SSE 1021,9 6 0,2
07.04.2020 09:00:00 13,7 13,4 18 10 SSE 1021,5 3,4 1,0
07.04.2020 08:00:00 13,7 13,4 15 8 SE 1021,2 15 -
07.04.2020 07:00:00 13,2 13,2 5 3 E 1021,2 3,1 2,0
07.04.2020 06:00:00 13,3 13,3 8 4 E 1021,1 3,4 3,0
07.04.2020 05:00:00 13,4 13,2 5 3 N 1021,5 7 -
07.04.2020 04:00:00 13,6 13,0 9 5 ESE 1021,5 18 0,4
07.04.2020 03:00:00 13,8 13,3 18 10 SSE 1021,4 15 0,2
07.04.2020 02:00:00 13,6 12,8 16 9 SSE 1021,4 19 -
07.04.2020 01:00:00 13,5 12,7 18 10 S 1021,5 20 0,8
07.04.2020 00:00:00 13,4 12,8 18 10 SSE 1021,7 4,2 3,0
06.04.2020 23:00:00 13,6 13,4 2 1 E 1021,8 4,3 -
06.04.2020 22:00:00 13,7 13,1 8 4 SSE 1021,2 7 3,0
06.04.2020 21:00:00 14,2 13,9 2 1 SE 1021,0 6 2,0
06.04.2020 20:00:00 14,6 13,8 4 2 E 1020,3 9 -
06.04.2020 19:00:00 14,7 13,7 4 2 ESE 1020,1 17 3,0
06.04.2020 18:00:00 14,9 13,8 4 2 WNW 1020,3 2,6 2,0
06.04.2020 17:00:00 17,4 12,1 8 4 SSW 1020,1 15 -
06.04.2020 16:00:00 18,3 11,8 13 7 SSW 1020,0 20 0,0
06.04.2020 15:00:00 18,3 11,6 15 8 S 1020,1 1,5 0,0
06.04.2020 14:00:00 17,2 12,5 8 4 SSW 1020,4 28 -
06.04.2020 13:00:00 16,7 12,4 9 5 SSW 1020,6 20 0,0
06.04.2020 12:00:00 15,2 12,0 11 6 WSW 1020,9 20 0,0
06.04.2020 11:00:00 14,6 11,9 8 4 SSW 1020,4 20 -
06.04.2020 10:00:00 15,2 11,8 8 4 S 1019,6 20 0,0
06.04.2020 09:00:00 12,6 11,3 9 5 SSW 1019,4 20 0,0
06.04.2020 08:00:00 12,2 11,3 8 4 SW 1018,9 20 -
06.04.2020 07:00:00 12,4 11,5 11 6 SW 1018,1 20 0,0
06.04.2020 06:00:00 12,4 11,6 13 7 SW 1017,8 20 0,0
06.04.2020 05:00:00 12,5 11,6 15 8 SW 1017,6 20 -
06.04.2020 04:00:00 13,1 12,0 13 7 SW 1017,1 20 0,0
06.04.2020 03:00:00 14,1 13,0 9 5 SSW 1017,0 20 0,0
06.04.2020 02:00:00 14,5 13,7 9 5 WSW 1017,1 20 -
06.04.2020 01:00:00 14,4 13,6 11 6 S 1016,7 20 1,0
06.04.2020 00:00:00 14,4 13,4 18 10 S 1016,7 13 0,4
05.04.2020 23:00:00 14,6 13,1 22 12 S 1015,9 13 -
05.04.2020 22:00:00 14,8 13,3 22 12 S 1015,3 20 0,0
05.04.2020 21:00:00 14,8 13,3 22 12 S 1014,9 3,4 1,0
05.04.2020 20:00:00 14,9 13,3 18 10 S 1014,3 19 -
05.04.2020 19:00:00 17,3 12,0 21 11 SSW 1013,8 19 0,0
05.04.2020 18:00:00 18,6 11,4 21 11 S 1013,3 20 0,0
05.04.2020 17:00:00 19,0 11,8 24 13 S 1013,6 20 -
05.04.2020 16:00:00 18,9 11,2 16 9 S 1013,9 20 0,0
05.04.2020 15:00:00 18,7 10,8 22 12 S 1014,4 20 0,0
05.04.2020 14:00:00 19,0 10,5 21 11 S 1014,5 30 -
05.04.2020 13:00:00 17,2 9,9 26 14 SSE 1015,2 20 0,0
05.04.2020 12:00:00 15,8 9,5 24 13 SSE 1015,7 20 0,0
05.04.2020 11:00:00 15,1 8,8 21 11 SE 1015,8 20 -
05.04.2020 10:00:00 12,9 8,2 21 11 SE 1016,0 20 0,0
05.04.2020 09:00:00 11,7 7,2 22 12 SSE 1016,1 20 0,0
05.04.2020 08:00:00 11,6 6,7 16 9 SE 1015,4 25 -
05.04.2020 07:00:00 11,8 7,3 16 9 SSE 1015,1 20 0,0
05.04.2020 06:00:00 11,8 7,3 16 9 S 1014,4 20 0,0
05.04.2020 05:00:00 12,8 7,9 21 11 SSE 1014,4 20 -
05.04.2020 04:00:00 12,3 8,4 15 8 SSE 1014,8 20 0,0
05.04.2020 03:00:00 12,4 8,3 18 10 SSE 1015,0 20 0,0
05.04.2020 02:00:00 11,7 8,2 13 7 SE 1015,1 20 -
05.04.2020 01:00:00 12,7 8,4 15 8 SSE 1015,1 20 0,0
05.04.2020 00:00:00 13,0 8,5 15 8 SSE 1014,9 20 0,0
04.04.2020 23:00:00 13,2 8,5 16 9 S 1014,9 20 -
04.04.2020 22:00:00 14,0 7,5 11 6 SSE 1014,2 20 0,0
04.04.2020 21:00:00 14,9 6,7 9 5 SSE 1013,5 20 0,0
04.04.2020 20:00:00 15,6 7,1 16 9 S 1013,0 20 -

tt = temperature
td = dewpoint
ff = wind speed
dd = wind direction
ppp = reduced air pressure
vv = visibility
rr = precipitation

Next stations